Theta_e
355 359 359 352 335 326 315 317 325 323 324 330 330 328 328 332 326 322 346 349 351 350 354 355 359 356 357 357 357 357 359 360 360 358 362 364 365 366 365 365 364 364 365 364 363 363 363 363 363
360 357 357 348 327 314 313 321 321 325 329 334 332 332 330 329 338 338 342 350 351 350 354 355 359 357 356 357 358 358 359 361 360 359 364 365 367 364 365 364 364 365 363 363 363 364 363 362 363
358 358 348 335 321 312 315 323 324 327 331 332 331 337 335 331 338 341 347 350 352 351 354 358 360 356 356 358 358 359 357 361 362 363 364 365 365 364 365 365 364 364 363 363 364 364 363 362 360
356 352 348 324 317 322 322 326 328 328 330 332 335 331 338 343 342 345 348 349 350 353 355 359 360 357 357 356 356 359 361 360 363 364 363 365 365 366 365 364 363 364 364 364 364 363 363 362 359
355 347 330 320 320 323 327 329 329 327 329 329 333 331 334 342 348 348 349 350 348 351 355 360 361 358 360 357 358 358 360 360 365 363 363 364 366 365 363 362 362 363 363 363 365 365 363 361 360
345 342 324 316 321 325 328 331 328 328 330 331 331 334 335 346 346 348 350 350 349 348 354 357 361 360 362 359 358 358 360 355 362 363 364 364 364 364 361 361 361 362 362 362 363 364 362 361 360
340 332 324 322 323 324 326 332 328 327 328 329 334 331 338 342 347 349 350 351 350 351 352 356 357 359 361 363 362 363 362 361 363 364 364 365 364 362 361 362 362 362 362 361 361 360 361 362 361
344 337 326 324 322 322 329 328 330 329 329 335 337 328 331 341 347 348 349 350 350 349 350 354 357 358 356 356 363 362 363 362 364 364 364 365 362 361 360 363 362 361 360 359 358 357 358 360 361
344 328 325 325 323 325 330 328 332 335 331 332 334 334 340 343 346 345 345 346 348 348 348 351 354 359 362 358 360 363 364 364 364 362 363 364 359 360 362 361 360 359 358 357 358 359 359 361 362
337 325 328 336 332 329 330 330 330 329 330 331 334 339 341 343 342 341 341 342 344 345 346 349 352 354 357 354 360 360 358 360 366 362 364 360 361 360 356 360 360 359 358 360 360 363 365 364 361
335 329 336 335 337 335 331 331 332 330 326 331 332 336 338 340 341 340 340 342 344 346 347 350 351 354 353 356 356 355 356 358 363 365 366 360 355 357 355 353 357 357 359 357 358 356 357 356 355
329 335 336 336 337 336 332 334 330 332 330 336 338 338 338 338 338 338 339 342 344 345 347 349 353 355 355 356 357 361 354 355 355 362 362 359 357 358 355 352 354 358 355 360 358 356 358 356 355
331 335 336 337 338 339 338 334 333 333 335 337 338 338 337 337 338 339 339 343 345 345 348 349 353 355 355 357 359 361 357 354 359 357 361 356 356 356 355 355 353 354 357 356 357 358 357 358 354
337 336 337 339 337 338 333 335 338 336 337 334 335 336 336 336 337 338 339 341 344 346 347 351 352 356 356 358 359 357 357 358 357 354 357 360 358 357 355 355 352 354 357 358 358 361 356 356 353
336 332 335 334 336 333 336 331 332 338 338 335 335 338 339 340 340 339 340 341 344 346 348 351 352 353 357 358 357 357 355 354 353 353 361 360 361 361 360 354 353 354 359 363 361 362 357 355 354
329 329 322 331 335 334 334 322 334 340 337 335 336 337 338 341 341 341 341 342 345 347 349 352 350 352 355 356 357 354 355 353 351 352 357 360 361 361 364 354 352 357 357 356 356 355 353 353 353
324 317 320 326 332 327 331 326 334 340 338 336 336 336 337 338 341 340 340 342 344 347 350 351 353 351 354 359 357 357 359 354 351 352 354 361 360 360 362 353 357 362 354 355 353 356 356 354 353
315 315 318 312 320 321 323 324 332 336 337 336 336 336 336 337 339 340 340 342 344 346 350 353 352 355 358 356 357 353 353 352 353 352 353 361 357 360 362 355 359 360 353 352 358 363 359 356 354
319 317 316 315 316 313 317 318 328 334 335 336 337 337 336 336 340 342 342 346 344 344 348 352 353 361 356 352 350 350 348 351 352 353 356 361 359 359 363 356 357 358 353 359 361 361 364 352 356
317 317 315 318 314 311 317 317 325 333 334 336 337 337 337 336 338 341 343 345 346 344 348 353 356 358 356 354 356 356 356 353 353 354 358 359 359 359 358 366 358 356 351 359 362 364 355 352 359
315 314 314 312 314 317 318 317 321 330 335 336 338 340 340 339 337 339 342 344 345 347 349 352 356 359 361 364 357 358 363 362 354 354 354 358 360 359 360 362 362 362 362 354 364 362 361 351 354
307 311 309 309 310 306 318 308 320 326 330 333 335 338 339 341 342 341 341 344 345 346 351 353 358 362 361 364 362 366 353 350 353 354 354 356 360 359 359 362 362 364 358 361 364 359 363 363 350
307 310 308 308 306 308 310 309 314 321 322 328 332 336 338 341 343 342 341 344 346 347 348 353 361 363 367 366 367 358 360 353 353 353 366 366 367 361 356 361 366 367 358 367 366 366 366 361 355
309 307 308 308 306 300 305 307 311 316 320 325 329 332 335 338 340 343 346 346 346 347 347 349 362 366 367 366 363 368 366 363 352 354 353 354 355 358 364 361 369 370 367 366 365 370 368 369 365
308 306 300 299 299 299 308 305 309 320 323 322 323 327 330 333 336 340 342 344 346 346 347 348 360 364 363 363 363 363 365 368 368 365 353 356 352 352 361 369 372 364 372 370 371 374 372 370 362
306 305 300 296 298 302 309 303 311 320 321 323 324 325 327 329 332 337 340 343 345 346 348 347 355 363 364 362 366 367 369 359 359 365 356 352 351 352 367 367 368 369 370 368 373 363 363 369 364
306 303 308 302 303 300 304 308 314 318 318 319 320 321 323 327 328 331 335 342 346 346 348 349 353 362 364 362 366 368 369 367 360 367 368 358 361 353 367 368 367 368 367 370 373 360 368 370 369
305 308 302 302 295 295 301 303 304 312 314 315 316 317 320 323 327 329 331 335 339 348 350 348 351 356 358 359 364 365 369 370 369 369 370 365 365 365 367 364 364 366 367 368 371 361 368 370 363
305 303 303 303 302 298 298 304 314 315 315 312 313 315 317 320 324 328 331 334 338 344 352 347 348 352 356 362 363 365 366 368 370 365 368 370 368 371 367 371 369 367 366 368 369 369 368 369 367
307 304 305 301 301 302 301 301 313 314 313 312 312 313 315 320 323 327 331 335 338 341 353 347 347 352 358 362 367 366 364 366 363 367 365 368 369 369 371 370 372 372 371 370 367 366 361 364 362
Wind_Speed
11 11 4 5 6 6 13 14 16 12 12 15 6 17 19 21 4 12 17 18 17 19 15 14 12 12 11 11 11 11 11 11 11 12 11 13 12 14 15 15 16 15 16 15 15 14 14 14 15
10 3 6 6 5 14 8 13 15 14 15 12 11 10 16 20 16 19 15 16 15 16 15 14 12 12 11 11 13 15 14 13 11 11 11 13 12 14 16 15 15 15 16 15 15 15 15 11 10
9 7 6 3 6 11 13 16 14 13 10 9 7 15 13 13 15 14 19 16 13 17 15 14 13 14 12 15 19 18 13 13 11 10 12 13 13 14 15 14 15 15 13 14 14 13 14 14 14
6 6 7 2 11 17 15 13 12 11 7 2 15 17 10 15 9 19 17 16 13 18 17 13 13 14 16 17 17 16 14 12 11 11 13 12 13 13 13 13 14 12 13 13 12 11 12 12 13
8 2 4 14 16 14 12 10 9 10 9 6 3 17 15 3 20 18 16 14 15 15 15 14 13 15 15 15 16 14 12 12 11 13 12 10 12 12 12 12 12 12 12 12 12 12 11 12 12
6 6 1 10 13 12 8 10 9 11 11 9 16 19 9 12 18 17 14 14 17 16 17 15 13 13 13 14 14 13 14 9 12 12 11 11 11 11 11 11 11 10 11 10 11 11 9 10 10
11 5 6 12 13 9 11 7 9 10 9 12 10 17 12 17 17 16 14 14 16 15 16 15 14 13 14 13 13 14 13 9 12 11 11 11 11 10 10 11 10 9 8 8 8 7 6 7 8
6 2 2 9 5 12 8 10 9 10 14 8 13 11 17 19 17 15 12 14 9 14 12 13 15 15 14 13 12 13 12 11 11 10 11 12 11 10 9 13 9 6 6 6 3 1 3 5 7
10 6 3 7 7 10 8 11 11 13 10 7 5 19 19 20 18 17 14 13 11 11 10 13 13 11 9 13 11 11 11 12 12 10 8 10 6 11 11 11 5 4 3 2 4 7 7 8 9
9 4 11 10 5 10 4 11 11 10 11 9 10 20 21 19 17 17 15 14 13 14 11 14 13 16 13 10 12 10 11 9 4 4 6 6 6 8 11 7 5 5 6 8 10 10 12 14 10
4 5 10 8 8 3 7 11 2 8 8 12 14 20 21 18 15 15 15 16 15 13 9 12 13 8 15 9 9 6 5 8 8 4 3 5 7 6 8 6 7 6 8 4 9 3 6 7 7
3 7 7 6 2 9 4 1 8 11 8 14 17 18 19 18 16 15 13 13 14 12 11 11 13 8 14 6 3 2 6 6 7 9 1 3 3 1 2 4 5 6 5 2 6 6 6 5 6
6 11 7 4 3 12 4 1 7 9 12 16 18 18 17 16 14 13 12 11 13 12 10 11 12 5 7 6 5 2 4 5 8 7 2 4 5 4 3 3 1 4 3 4 4 5 4 5 7
11 9 11 5 4 5 3 4 3 10 14 16 16 16 15 15 15 13 12 12 11 13 11 14 11 9 8 5 6 4 4 6 2 5 8 3 3 3 5 5 4 3 3 6 5 3 3 5 4
2 13 12 3 3 3 8 8 7 14 14 16 15 14 14 13 13 14 13 12 12 12 13 15 13 12 10 7 7 7 6 7 5 4 7 6 3 4 2 4 3 2 4 6 4 6 4 1 2
7 11 2 7 8 4 10 1 6 13 14 14 14 13 13 13 14 13 13 12 12 13 12 13 11 15 11 9 8 6 5 4 5 6 8 7 4 5 6 5 4 5 5 2 1 2 4 5 4
11 7 8 11 7 0 6 3 10 13 13 13 13 13 13 13 13 13 14 14 14 12 13 11 11 13 13 10 8 6 5 6 6 6 7 9 8 8 8 4 6 2 2 2 5 2 3 3 3
5 10 11 5 6 3 6 4 11 12 13 13 14 14 13 13 15 15 15 15 14 13 14 13 12 11 12 9 7 7 7 8 6 6 6 11 8 7 6 4 2 5 3 3 6 5 5 6 3
8 8 3 6 3 8 6 4 11 13 14 13 14 14 14 14 15 17 15 14 14 15 14 14 13 11 10 9 9 8 9 8 8 7 6 9 8 10 8 8 8 6 4 4 1 6 6 6 4
9 10 8 7 8 5 11 10 10 18 14 13 14 15 15 16 16 17 17 16 15 16 15 15 14 14 11 9 8 7 7 8 8 8 9 8 10 9 9 9 6 6 5 6 4 3 7 5 6
12 11 12 7 8 13 14 16 10 10 16 12 14 15 15 16 16 17 18 17 16 17 17 16 15 15 13 11 9 7 3 3 5 8 9 10 11 10 11 10 8 2 6 7 7 6 2 8 3
13 12 5 10 13 10 3 3 9 14 14 16 14 15 15 15 15 17 17 17 17 17 18 17 16 15 14 13 11 11 10 10 10 9 9 10 12 12 12 10 9 7 5 8 5 6 4 1 7
12 8 9 12 14 15 14 9 6 6 10 17 16 17 14 16 15 16 20 19 17 18 17 18 16 16 14 14 12 11 11 10 9 9 9 8 11 12 13 12 10 8 7 7 5 3 3 3 5
11 13 14 15 13 13 15 14 12 10 9 16 13 6 12 11 13 15 16 18 18 18 18 18 18 15 16 16 16 12 13 12 10 10 9 10 10 11 12 12 10 8 8 8 6 6 6 6 6
11 15 10 10 11 11 13 14 11 16 19 15 12 14 12 9 4 13 15 15 17 19 19 18 19 19 18 19 18 17 14 13 12 10 10 11 11 11 13 12 10 9 9 8 9 9 6 7 6
8 11 10 8 6 7 9 5 1 19 15 13 12 11 9 11 12 12 12 16 17 19 20 21 19 21 19 19 18 17 16 12 12 11 10 11 11 12 12 15 12 12 11 11 9 8 9 9 9
3 8 10 10 14 10 10 8 7 14 13 7 10 8 8 9 10 12 12 11 15 16 21 22 20 21 21 21 18 17 17 17 14 14 13 10 11 10 10 15 13 13 13 11 10 10 9 7 6
11 10 9 9 8 12 9 9 8 19 16 8 5 8 9 9 9 11 12 11 11 18 15 23 24 21 21 23 19 17 17 17 15 13 13 15 11 12 9 13 13 13 13 13 12 11 11 10 9
8 11 11 15 12 12 10 3 14 14 10 4 5 12 12 12 12 12 13 14 15 18 24 21 23 23 21 20 18 18 18 18 17 15 14 13 13 11 12 11 13 13 13 13 12 12 11 9 12
11 14 16 11 11 12 12 12 15 11 4 7 9 11 14 13 13 14 13 15 16 20 21 11 18 21 19 18 17 18 18 18 18 17 16 16 14 14 13 13 12 13 14 14 13 13 14 14 13
Wind_Direction
202 216 259 268 252 184 89 83 81 122 90 83 70 64 67 44 51 87 147 111 135 114 126 116 105 105 105 108 133 128 124 115 96 95 93 86 90 85 88 84 87 81 78 75 74 74 78 77 78
266 254 228 277 255 92 85 97 72 64 97 94 101 111 73 54 92 121 120 125 124 124 120 111 106 97 100 112 125 125 120 105 99 97 90 91 88 92 87 84 82 82 78 78 74 73 74 84 80
266 273 271 275 26 73 80 78 89 93 121 95 90 46 47 103 113 111 117 132 123 107 105 107 106 102 95 106 113 108 90 104 103 96 92 91 93 92 90 85 80 77 79 79 74 76 77 74 71
259 206 208 1 76 72 85 89 111 115 88 69 116 97 92 107 98 116 132 130 126 116 101 117 111 102 105 107 114 115 121 107 96 96 90 85 89 85 85 81 80 76 72 69 70 76 79 73 70
249 1 273 97 86 73 70 58 50 69 92 120 35 103 93 60 105 131 136 137 122 109 119 120 113 109 106 112 110 109 108 98 97 95 95 96 86 85 83 80 78 75 70 64 59 77 79 71 67
256 17 139 90 85 98 84 67 93 87 87 111 97 113 101 135 135 140 145 141 130 129 109 122 115 114 120 113 114 112 101 105 107 105 101 99 95 86 84 83 78 79 74 65 65 70 82 80 75
291 270 78 117 112 64 78 352 83 91 115 103 131 105 128 149 140 139 151 146 129 123 123 138 129 120 118 118 117 116 126 132 115 114 104 101 99 96 94 87 84 81 77 67 68 75 88 102 99
272 256 108 90 111 101 91 81 56 73 63 113 132 126 158 137 144 139 146 112 126 129 136 120 136 135 146 138 116 117 123 125 121 120 133 131 122 131 126 124 86 86 77 68 57 161 138 139 156
260 348 123 81 82 116 135 101 76 98 122 103 53 137 137 149 146 148 143 142 146 131 141 134 137 120 122 132 128 130 141 143 143 152 166 178 155 149 139 74 99 101 124 155 232 251 223 189 206
261 271 89 60 76 103 95 83 121 127 129 119 105 109 135 151 158 152 156 149 156 154 163 149 152 140 156 133 163 151 154 152 164 90 184 189 52 54 97 114 167 198 212 230 229 240 256 204 189
28 80 68 101 88 130 106 91 79 167 109 125 135 142 150 158 167 157 167 160 158 150 169 143 119 164 123 150 164 165 187 146 118 131 322 80 130 168 177 146 175 178 205 194 215 49 35 37 34
320 84 126 128 117 129 93 123 97 53 60 107 133 149 157 166 169 166 169 162 150 152 164 154 132 156 126 159 203 150 169 145 159 124 187 137 163 277 183 87 108 243 71 287 12 60 30 39 84
80 106 116 134 122 70 37 241 69 93 104 121 135 155 164 171 169 166 166 163 155 159 159 140 128 158 127 169 114 328 111 190 115 146 131 199 123 93 201 136 119 25 285 87 33 42 32 307 93
71 130 103 123 93 107 147 238 232 124 130 133 148 157 167 171 173 165 174 167 169 164 166 132 150 154 148 217 135 207 196 106 173 147 144 145 157 194 111 171 159 117 336 35 25 1 337 317 43
258 122 133 173 175 184 212 249 183 146 147 147 162 167 167 171 174 172 176 172 185 169 169 143 163 165 155 198 175 217 149 159 171 156 135 170 213 180 155 137 207 161 114 241 192 279 204 40 95
210 88 106 132 203 196 94 342 111 153 163 162 172 173 176 174 175 177 175 178 176 174 168 160 186 161 171 176 190 194 162 186 178 172 158 176 196 163 245 161 174 72 248 213 305 347 331 45 348
191 119 84 131 209 96 248 144 142 163 182 171 176 179 183 178 181 173 177 185 172 182 167 179 185 168 168 167 190 216 145 249 192 188 177 173 184 176 251 209 117 227 251 293 298 332 30 62 314
345 134 124 93 93 206 214 256 159 172 192 181 184 182 187 187 186 174 181 185 178 180 172 181 177 180 173 172 211 193 176 210 216 199 202 154 189 192 224 190 90 242 248 213 28 350 14 297 29
323 313 84 123 155 291 5 255 174 184 204 186 186 184 191 196 180 173 186 179 177 177 178 181 183 175 179 190 193 204 207 198 203 204 196 151 207 191 198 243 178 233 274 28 174 257 204 295 35
288 283 271 129 160 242 285 292 183 163 201 196 189 183 194 193 186 183 184 184 186 178 181 182 185 177 192 195 205 195 210 205 208 200 171 207 206 197 201 251 192 205 186 187 234 303 311 263 99
265 273 302 332 331 269 242 259 187 174 178 192 198 195 193 195 192 187 185 192 192 182 185 186 191 184 192 211 200 187 194 258 243 199 185 195 205 209 220 201 268 202 280 191 192 216 291 304 8
278 26 339 289 277 278 197 283 213 168 184 181 203 189 196 197 195 184 192 194 200 196 186 190 190 193 195 204 192 198 203 204 198 220 196 186 203 205 200 221 208 251 234 260 179 219 278 226 296
286 14 294 285 278 270 258 248 282 161 203 186 195 181 194 186 197 200 190 195 205 199 196 192 189 195 202 195 229 185 222 206 206 206 188 211 177 209 211 203 218 214 221 259 251 306 178 291 261
312 279 261 247 252 254 246 257 254 204 174 86 81 147 162 185 195 203 205 196 199 208 202 196 186 196 200 195 207 218 195 240 213 197 190 185 201 196 210 209 209 212 223 233 242 233 236 261 309
244 259 258 227 212 243 236 215 231 53 84 85 82 60 38 1 326 199 201 213 202 207 212 206 186 192 201 204 201 211 218 217 247 184 217 204 203 197 192 208 198 209 213 245 218 217 253 225 246
313 316 304 316 287 353 85 228 313 98 98 98 88 80 45 20 22 1 338 199 209 212 213 216 197 188 199 206 207 201 208 214 223 210 214 219 219 204 190 188 204 211 216 215 242 238 224 226 222
79 248 6 302 270 262 275 138 149 118 102 94 93 76 42 17 12 10 355 352 334 219 212 217 214 191 195 205 203 204 203 215 210 226 208 219 225 224 186 177 197 211 215 224 215 233 232 253 247
270 348 264 210 273 271 250 224 222 174 133 100 65 39 16 5 0 358 345 357 337 305 258 208 216 204 197 209 205 203 202 205 223 212 220 215 218 230 202 186 197 209 213 213 220 237 223 220 234
185 219 224 279 296 299 279 34 53 94 99 88 14 17 352 350 351 349 341 346 335 325 308 214 207 214 200 205 209 206 204 204 204 221 214 222 222 207 228 197 196 206 212 217 222 234 254 248 221
279 284 285 276 236 244 271 275 129 115 115 44 8 353 344 344 344 348 343 342 345 334 323 260 206 209 204 196 211 205 207 209 207 210 216 210 218 223 205 218 218 211 214 216 219 222 235 223 243